Boonton, New Jersey, United States (07005)
Lat: 40.90N, Lon: 74.41W
Wx Zone: NJZ008
Local Info
Past Weather Observations for Tuesday, February 9, 2016

NOTE: This archive is for the closest National Weather Service station to Boonton. Information may differ from the station used for current weather conditions.

Click here for Long-term Archive

Time Weather Temperature Dewpoint Humidity Pressure Winds Precip Visibility
23:53
Overcast
Light Snow
30°F / -1°C 28°F / -2°C 93% 29.62 in
(1003 mb)
Calm 0.00 in
(0.00 mm)
2 1/2SM
22:53
Overcast
Fog And Mist
30°F / -1°C 28°F / -2°C 93% 29.62 in
(1003 mb)
Calm - 4SM
22:04
Overcast
Fog And Mist
30°F / -1°C 27°F / -3°C 86% 29.62 in
(1003 mb)
Calm - 6SM
21:53
Overcast
Fog And Mist
30°F / -1°C 27°F / -3°C 86% 29.62 in
(1003 mb)
Calm - 6SM
20:53
Partly Cloudy
30°F / -1°C 27°F / -3°C 86% 29.62 in
(1003 mb)
Calm 0.00 in
(0.00 mm)
9SM
19:53
Overcast
Light Snow
32°F / 0°C 27°F / -3°C 80% 29.62 in
(1003 mb)
Calm 0.00 in
(0.00 mm)
5SM
18:53
Overcast
34°F / 1°C 25°F / -4°C 70% 29.62 in
(1003 mb)
SSW 3.5 mph
(SSW 6 kph)
- 10SM
17:53
Overcast
34°F / 1°C 25°F / -4°C 70% 29.59 in
(1002 mb)
Calm - 10SM
16:53
Mostly Cloudy
34°F / 1°C 23°F / -5°C 65% 29.59 in
(1002 mb)
Calm - 10SM
16:43
Mostly Cloudy
34°F / 1°C 23°F / -5°C 65% 29.59 in
(1002 mb)
Calm - 10SM
15:53
Overcast
34°F / 1°C 23°F / -5°C 65% 29.59 in
(1002 mb)
Calm - 10SM
14:53
Overcast
34°F / 1°C 21°F / -6°C 60% 29.56 in
(1001 mb)
Calm - 10SM
13:53
Overcast
32°F / 0°C 23°F / -5°C 69% 29.59 in
(1002 mb)
SE 4.6 mph
(SE 7 kph)
- 10SM
12:53
Overcast
30°F / -1°C 21°F / -6°C 69% 29.59 in
(1002 mb)
Calm - 10SM
11:53
Overcast
30°F / -1°C 21°F / -6°C 69% 29.59 in
(1002 mb)
ENE 4.6 mph
(ENE 7 kph)
- 10SM
10:53
Overcast
28°F / -2°C 21°F / -6°C 74% 29.65 in
(1004 mb)
ENE 6.9 mph
(ENE 11 kph)
- 10SM
10:44
Overcast
28°F / -2°C 21°F / -6°C 74% 29.65 in
(1004 mb)
ENE 6.9 mph
(ENE 11 kph)
- 10SM
09:53
Overcast
28°F / -2°C 21°F / -6°C 74% 29.65 in
(1004 mb)
ENE 8.1 mph
(ENE 13 kph)
0.00 in
(0.00 mm)
8SM
08:53
Overcast
27°F / -3°C 21°F / -6°C 80% 29.68 in
(1005 mb)
ENE 9.2 mph
(ENE 15 kph)
- 10SM
07:53
Overcast
27°F / -3°C 21°F / -6°C 80% 29.71 in
(1006 mb)
ENE 8.1 mph
(ENE 13 kph)
- 10SM
06:53
Overcast
27°F / -3°C 21°F / -6°C 80% 29.68 in
(1005 mb)
E 8.1 mph
(E 13 kph)
- 10SM
05:53
Overcast
27°F / -3°C 21°F / -6°C 80% 29.68 in
(1005 mb)
E 8.1 mph
(E 13 kph)
- 10SM
05:49
Overcast
27°F / -3°C 21°F / -6°C 80% 29.68 in
(1005 mb)
E 6.9 mph
(E 11 kph)
- 10SM
05:31
Overcast
27°F / -3°C 19°F / -7°C 74% 29.68 in
(1005 mb)
E 6.9 mph
(E 11 kph)
- 10SM
04:53
Overcast
27°F / -3°C 19°F / -7°C 74% 29.65 in
(1004 mb)
ENE 8.1 mph
(ENE 13 kph)
0.00 in
(0.00 mm)
10SM
03:53
Overcast
Light Snow
27°F / -3°C 21°F / -6°C 80% 29.71 in
(1006 mb)
E 9.2 mph
(E 15 kph)
0.00 in
(0.00 mm)
8SM
03:45
Overcast
Light Snow
27°F / -3°C 21°F / -6°C 80% 29.71 in
(1006 mb)
E 10.4 mph
(E 17 kph)
0.00 in
(0.00 mm)
7SM
02:53
Overcast
Light Snow
27°F / -3°C 21°F / -6°C 80% 29.71 in
(1006 mb)
E 9.2 mph
(E 15 kph)
0.00 in
(0.00 mm)
8SM
02:30
Overcast
Light Snow
27°F / -3°C 23°F / -5°C 86% 29.74 in
(1007 mb)
E 5.8 mph
(E 9 kph)
0.00 in
(0.00 mm)
3SM
01:53
Overcast
Light Snow
27°F / -3°C 21°F / -6°C 80% 29.74 in
(1007 mb)
E 8.1 mph
(E 13 kph)
0.00 in
(0.00 mm)
2SM
01:48
Overcast
Light Snow
27°F / -3°C 23°F / -5°C 86% 29.74 in
(1007 mb)
ESE 8.1 mph
(ESE 13 kph)
0.00 in
(0.00 mm)
2SM
00:53
Overcast
28°F / -2°C 21°F / -6°C 74% 29.74 in
(1007 mb)
E 6.9 mph
(E 11 kph)
- 10SM
00:31
Overcast
28°F / -2°C 21°F / -6°C 74% 29.74 in
(1007 mb)
E 6.9 mph
(E 11 kph)
- 10SM
Time Weather Temperature Dewpoint Humidity Pressure Winds Precip Visibility


Weather for websites

WeatherForYou.com, LLC is not responsible for any damages or problems caused by this service. Current weather conditions are obtained from the closest station including government and personal stations which may have varying degrees of accuracy. Weather forecasts are derived from the NOAA NDFD. Like all things, this site belongs to Jesus Christ... He just trusts us to maintain it. If you have any questions or comments email webmaster@weatherforyou.com

Copyright © 2016, WeatherForYou.com LLC. All rights reserved.